This is the latest recevied weather packets stored in our database for station/object SP1BMW-13. If no packets are shown the sender has not sent any weather packets the latest 10 day(s).
| Time | Temp. | Humidity | Pressure | Rain* | Wind** | Luminosity | Snow |
|---|---|---|---|---|---|---|---|
| 1787935517 | 21.67° C | 74% | 1007.5 hPa | 0 mm | 2.24 m/s, 42° | 22 W/m² | - |
| 1787935457 | 21.67° C | 74% | 1007.8 hPa | 0 mm | 0 m/s | 23 W/m² | - |
| 1787935397 | 21.67° C | 73% | 1007.9 hPa | 0 mm | 0.89 m/s, 44° | 26 W/m² | - |
| 1787935337 | 21.67° C | 73% | 1007.9 hPa | 0 mm | 0.45 m/s, 27° | 27 W/m² | - |
| 1787935277 | 21.67° C | 73% | 1007.9 hPa | 0 mm | 0 m/s | 28 W/m² | - |
| 1787935217 | 21.67° C | 73% | 1007.8 hPa | 0 mm | 0.89 m/s, 193° | 28 W/m² | - |
| 1787935158 | 21.67° C | 72% | 1007.7 hPa | 0 mm | 0.45 m/s, 279° | 28 W/m² | - |
| 1787935098 | 21.67° C | 72% | 1007.6 hPa | 0 mm | 0.45 m/s, 225° | 29 W/m² | - |
| 1787935037 | 21.67° C | 73% | 1007.5 hPa | 0 mm | 0 m/s | 31 W/m² | - |
| 1787934978 | 21.67° C | 72% | 1007.1 hPa | 0 mm | 0.89 m/s, 132° | 31 W/m² | - |
| 1787934918 | 21.67° C | 72% | 1007 hPa | 0 mm | 0.89 m/s, 75° | 31 W/m² | - |
| 1787934858 | 22.22° C | 71% | 1006.9 hPa | 0 mm | 0.45 m/s, 95° | 30 W/m² | - |
| 1787934798 | 22.22° C | 72% | 1007 hPa | 0 mm | 0.89 m/s, 31° | 26 W/m² | - |
| 1787934737 | 22.22° C | 71% | 1007 hPa | 0 mm | 0.45 m/s, 113° | 23 W/m² | - |
| 1787934677 | 22.22° C | 71% | 1006.9 hPa | 0 mm | 1.79 m/s, 29° | 19 W/m² | - |
| 1787934617 | 22.22° C | 71% | 1007.1 hPa | 0 mm | 0.45 m/s, 45° | 16 W/m² | - |
| 1787934558 | 22.22° C | 70% | 1007.3 hPa | 0 mm | 1.34 m/s, 75° | 15 W/m² | - |
| 1787934498 | 22.22° C | 70% | 1007.1 hPa | 0 mm | 0.89 m/s, 53° | 16 W/m² | - |
| 1787934438 | 22.22° C | 69% | 1007.1 hPa | 0 mm | 0.89 m/s, 19° | 16 W/m² | - |
| 1787934378 | 22.22° C | 69% | 1007.2 hPa | 0 mm | 0.45 m/s, 113° | 17 W/m² | - |
| 1787934317 | 22.22° C | 69% | 1007.2 hPa | 0 mm | 0.89 m/s, 95° | 19 W/m² | - |
| 1787934258 | 22.22° C | 69% | 1007.2 hPa | 0 mm | 0.89 m/s, 66° | 20 W/m² | - |
| 1787934198 | 22.22° C | 69% | 1006.9 hPa | 0 mm | 0.89 m/s, 135° | 21 W/m² | - |
| 1787934138 | 22.22° C | 68% | 1007.2 hPa | 0 mm | 0.89 m/s, 28° | 23 W/m² | - |
| 1787934078 | 22.22° C | 68% | 1007.2 hPa | 0 mm | 0.89 m/s, 40° | 25 W/m² | - |
* Rain latest hour (hover to see other rain measurements)
** Current wind speed in m/s (hover to see current wind gust speed)